New Bedford, MA

10:02 AM EDT on September 27, 2016 (GMT -0400)
New Bedford Regional

Weather History for KEWB - November, 2012

Change the Weather History Date:

Monday, November 26, 2012

  Actual Average Record
Temperature  
Mean Temperature 38 °F -  
Max Temperature 46 °F 50 °F 66 °F (1999)
Min Temperature 27 °F 35 °F 17 °F (2005)
Degree Days  
Heating Degree Days 27    
Moisture  
Dew Point 22 °F    
Average Humidity 56    
Maximum Humidity 78    
Minimum Humidity 34    
Precipitation  
Precipitation 0.00 in - - ()
Sea Level Pressure  
Sea Level Pressure 30.06 in    
Wind  
Wind Speed 8 mph (West)    
Max Wind Speed 17 mph    
Max Gust Speed 28 mph    
Visibility 10 miles    
Events      
Averages and records for this station are not official NWS values.
T = Trace of Precipitation, MM = Missing Value Source: NWS Daily Summary

Daily Weather History Graph

Daily Weather History Graph

Search for Another Location

Airport or City:

Trip Planner

Search our weather history database for the weather conditions in past years. The results will help you decide how hot, cold, wet, or windy it might be!

Date:

Astronomy

Nov. 26, 2012 Rise Set
Actual Time 6:46 AM EST 4:15 PM EST
Civil Twilight 6:15 AM EST 4:46 PM EST
Nautical Twilight 5:41 AM EST 5:20 PM EST
Astronomical Twilight 5:08 AM EST 5:54 PM EST
Moon 3:07 PM EST (11/26) 4:52 AM EST (11/26)
Length of Visible Light 10h 30m
Length of Day
9h 29m
Waxing Gibbous, 97% of the Moon is Illuminated
Nov 26
Waxing Gibbous
Nov 28
Full
Dec 6
Last Quarter
Dec 13
New
Dec 20
First Quarter

Hourly Weather History & Observations

Time (EST) Temp. Windchill Dew Point Humidity Pressure Visibility Wind Dir Wind Speed Gust Speed Precip Events Conditions
12:53 AM 34.0 °F 28.0 °F 23.0 °F 64% 29.90 in 10.0 mi West 6.9 mph - N/A   Partly Cloudy
1:53 AM 35.1 °F 27.9 °F 23.0 °F 61% 29.92 in 10.0 mi West 9.2 mph - N/A   Clear
2:53 AM 35.1 °F 28.6 °F 23.0 °F 61% 29.92 in 10.0 mi WSW 8.1 mph - N/A   Overcast
3:53 AM 34.0 °F 27.2 °F 21.9 °F 61% 29.93 in 10.0 mi West 8.1 mph - N/A   Scattered Clouds
4:53 AM 33.1 °F 27.7 °F 21.9 °F 64% 29.94 in 10.0 mi WSW 5.8 mph - N/A   Partly Cloudy
5:53 AM 34.0 °F 28.8 °F 21.9 °F 61% 29.96 in 10.0 mi WSW 5.8 mph - N/A   Clear
6:53 AM 33.1 °F 27.7 °F 21.9 °F 64% 29.96 in 10.0 mi West 5.8 mph - N/A   Clear
7:53 AM 33.1 °F 28.7 °F 24.1 °F 70% 29.99 in 10.0 mi WSW 4.6 mph - N/A   Scattered Clouds
8:53 AM 41.0 °F 33.9 °F 25.0 °F 53% 30.00 in 10.0 mi West 12.7 mph - N/A   Clear
9:53 AM 43.0 °F 35.1 °F 24.1 °F 47% 30.03 in 10.0 mi West 17.3 mph 24.2 mph N/A   Clear
10:53 AM 45.0 °F 38.2 °F 23.0 °F 42% 30.02 in 10.0 mi West 15.0 mph 24.2 mph N/A   Clear
11:53 AM 46.0 °F 39.0 °F 23.0 °F 40% 30.01 in 10.0 mi West 17.3 mph 27.6 mph N/A   Clear
12:53 PM 46.9 °F - 21.9 °F 37% 30.03 in 10.0 mi WNW 11.5 mph 20.7 mph N/A   Clear
1:53 PM 46.9 °F - 19.9 °F 34% 30.04 in 10.0 mi WNW 13.8 mph 23.0 mph N/A   Scattered Clouds
2:53 PM 46.0 °F 40.6 °F 19.9 °F 35% 30.06 in 10.0 mi WNW 11.5 mph 18.4 mph N/A   Clear
3:53 PM 44.1 °F 40.1 °F 19.9 °F 38% 30.09 in 10.0 mi West 6.9 mph - N/A   Clear
4:53 PM 39.9 °F 34.5 °F 19.9 °F 45% 30.12 in 10.0 mi West 8.1 mph - N/A   Clear
5:53 PM 34.0 °F - 21.0 °F 59% 30.16 in 10.0 mi Calm Calm - N/A   Clear
6:53 PM 34.0 °F 28.8 °F 21.9 °F 61% 30.18 in 10.0 mi West 5.8 mph - N/A   Clear
7:53 PM 30.9 °F 25.2 °F 21.9 °F 69% 30.21 in 10.0 mi WNW 5.8 mph - N/A   Clear
8:53 PM 33.1 °F 27.7 °F 21.9 °F 64% 30.22 in 10.0 mi West 5.8 mph - N/A   Clear
9:53 PM 34.0 °F 29.8 °F 23.0 °F 64% 30.23 in 10.0 mi West 4.6 mph - N/A   Clear
10:53 PM 30.0 °F - 23.0 °F 75% 30.24 in 10.0 mi Calm Calm - N/A   Clear
11:53 PM 27.0 °F - 21.0 °F 78% 30.25 in 10.0 mi Calm Calm - N/A   Clear